Home   Weather   Salisbury   Past weeks

Flag for United Kingdom Past Weather in Salisbury, England, United Kingdom — Yesterday and Last 2 Weeks

52 °F

Light rain. Overcast.

Feels Like: 49 °F
Forecast: 49 / 59 °F
Wind: 8 mph from Northeast

Location: Boscombe Down

Current Time: Oct 24, 2016 at 5:09:52 PM

Latest Report: Oct 24, 2016 at 4:50 PM

Visibility: 4 mi

Pressure: 29.89 "Hg

Humidity: 88%

Dew Point: 48 °F

Location of SalisburyLocation

Past Weather in Salisbury — Graph


Salisbury Temperature Yesterday

Maximum temperature yesterday: 52 °F (at 12:50 PM)
Minimum temperature yesterday: 43 °F (at 7:50 AM)
Average temperature yesterday: 47 °F

High & Low Weather Summary for the Past Weeks

High61 °F (Oct 12, 1:50 PM)100% (Oct 10, 12:50 AM)30.36 "Hg (Oct 10, 12:50 AM)
Low39 °F (Oct 21, 2:50 AM)51% (Oct 10, 2:50 PM)29.62 "Hg (Oct 14, 11:50 PM)
Average49 °F85%30.01 "Hg
* Reported Oct 9 3:50 PM — Oct 24 3:50 PM, Salisbury, Weather by CustomWeather, © 2016

Note: Actual official high and low records may vary slightly from our data, if they occured in-between our weather recording intervals... More about our weather records


Salisbury Weather History for the Previous 24 Hours

Scroll right to see more
Time TempWeatherWind HumidityBarometerVisibility
3:50 PM
Mon, Oct 24
52 °FLight rain. Mostly cloudy.6 mph88%29.89 "Hg5 mi
2:50 PM52 °FLight rain. Mostly cloudy.7 mph88%29.89 "Hg6 mi
1:50 PM52 °FMore clouds than sun.9 mph82%29.89 "HgN/A
12:50 PM52 °FPartly sunny.13 mph88%29.89 "Hg5 mi
11:50 AM50 °FLow clouds.12 mph88%29.86 "Hg4 mi
10:50 AM50 °FPartly sunny.13 mph88%29.86 "Hg4 mi
9:50 AM50 °FPartly sunny.14 mph88%29.86 "Hg4 mi
8:50 AM48 °FMostly cloudy.10 mph87%29.86 "Hg4 mi
7:50 AM46 °FLight rain. More clouds than sun.10 mph93%29.83 "Hg4 mi
6:50 AM46 °FLight rain. Overcast.10 mph93%29.83 "Hg5 mi
5:50 AM46 °FSprinkles. Overcast.9 mph93%29.83 "HgN/A
4:50 AM48 °FOvercast.12 mph82%29.80 "HgN/A
3:50 AM48 °FOvercast.13 mph87%29.80 "HgN/A
2:50 AM46 °FSprinkles. Overcast.15 mph93%29.80 "Hg6 mi
1:50 AM48 °FOvercast.10 mph82%29.83 "HgN/A
12:50 AM48 °FSprinkles. Overcast.10 mph82%29.80 "HgN/A
11:50 PM
Sun, Oct 23
48 °FOvercast.12 mph82%29.80 "HgN/A
10:50 PM48 °FOvercast.15 mph82%29.80 "HgN/A
9:50 PM48 °FPassing clouds.15 mph82%29.80 "HgN/A
8:50 PM48 °FOvercast.13 mph82%29.80 "HgN/A
7:50 PM48 °FOvercast.15 mph76%29.77 "HgN/A
6:50 PM50 °FPassing clouds.16 mph71%29.77 "HgN/A
5:50 PM50 °FPartly sunny.14 mph71%29.77 "HgN/A
Weather by CustomWeather, © 2016

See weather overviewHow to use our weather pages